Time,TemperatureF,DewpointF,PressureIn,WindDirection,WindDirectionDegrees,WindSpeedMPH,WindSpeedGustMPH,Humidity,HourlyPrecipIn,Conditions,Clouds,dailyrainin,SoftwareType,DateUTC
2013-06-16 00:00:00,64.5,62.7,30.03,SSW,202,0.0,3.0,94,0.00,,,0.00,VWS V14.01,2013-06-16 04:00:00,
2013-06-16 00:01:00,64.5,62.7,30.03,SSW,196,1.0,1.0,94,0.00,,,0.00,Wunderground v.1.15,2013-06-16 04:01:00,
2013-06-16 00:02:00,64.5,62.7,30.03,SSW,196,1.0,1.0,94,0.00,,,0.00,Wunderground v.1.15,2013-06-16 04:02:00,
2013-06-16 00:03:00,64.5,62.7,30.03,SSW,196,1.0,1.0,94,0.00,,,0.00,Wunderground v.1.15,2013-06-16 04:03:00,
2013-06-16 00:04:00,64.5,62.7,30.03,SSW,207,1.0,1.0,94,0.00,,,0.00,Wunderground v.1.15,2013-06-16 04:04:00,
2013-06-16 00:10:00,64.5,62.4,30.03,SSW,192,1.0,1.0,93,0.00,,,0.00,Wunderground v.1.15,2013-06-16 04:10:00,
2013-06-16 00:15:00,64.7,62.6,30.03,SSW,193,1.0,2.0,93,0.00,,,0.00,Wunderground v.1.15,2013-06-16 04:15:00,
2013-06-16 00:21:00,65.1,62.7,30.03,SSW,208,1.0,1.0,92,0.00,,,0.00,Wunderground v.1.15,2013-06-16 04:21:00,
2013-06-16 00:26:00,65.3,62.6,30.04,SSW,209,1.0,3.0,91,0.00,,,0.00,Wunderground v.1.15,2013-06-16 04:26:00,
2013-06-16 00:30:00,65.4,62.4,30.04,SSW,202,1.0,4.0,90,0.00,,,0.00,VWS V14.01,2013-06-16 04:30:00,
2013-06-16 00:32:00,65.4,62.4,30.03,South,185,2.0,4.0,90,0.00,,,0.00,Wunderground v.1.15,2013-06-16 04:32:00,
2013-06-16 00:38:00,65.7,62.4,30.03,SSW,213,3.0,5.0,89,0.00,,,0.00,Wunderground v.1.15,2013-06-16 04:38:00,
2013-06-16 00:44:00,66.0,62.7,30.03,SSW,209,3.0,5.0,89,0.00,,,0.00,Wunderground v.1.15,2013-06-16 04:44:00,
2013-06-16 00:50:00,66.1,62.8,30.03,SSW,206,3.0,3.0,89,0.00,,,0.00,Wunderground v.1.15,2013-06-16 04:50:00,
2013-06-16 00:56:00,66.1,62.4,30.03,SSW,200,3.0,4.0,88,0.00,,,0.00,Wunderground v.1.15,2013-06-16 04:56:00,
2013-06-16 01:00:00,66.1,62.8,30.03,SSW,202,3.0,7.0,89,0.00,,,0.00,VWS V14.01,2013-06-16 05:00:00,
2013-06-16 01:02:00,66.0,62.7,30.03,SSW,195,3.0,5.0,89,0.00,,,0.00,Wunderground v.1.15,2013-06-16 05:02:00,
2013-06-16 01:08:00,66.2,62.5,30.02,SSW,200,3.0,5.0,88,0.00,,,0.00,Wunderground v.1.15,2013-06-16 05:08:00,
2013-06-16 01:14:00,66.2,62.5,30.03,SSW,211,3.0,6.0,88,0.00,,,0.00,Wunderground v.1.15,2013-06-16 05:14:00,
2013-06-16 01:20:00,66.2,62.5,30.03,SSW,203,3.0,4.0,88,0.00,,,0.00,Wunderground v.1.15,2013-06-16 05:20:00,
2013-06-16 01:26:00,66.1,62.4,30.02,SW,221,3.0,4.0,88,0.00,,,0.00,Wunderground v.1.15,2013-06-16 05:26:00,
2013-06-16 01:30:00,66.1,62.5,30.02,SSW,202,3.0,6.0,88,0.00,,,0.00,VWS V14.01,2013-06-16 05:30:00,
2013-06-16 01:32:00,66.1,62.4,30.02,South,182,3.0,5.0,88,0.00,,,0.00,Wunderground v.1.15,2013-06-16 05:32:00,
2013-06-16 01:38:00,66.1,62.4,30.02,SW,229,3.0,5.0,88,0.00,,,0.00,Wunderground v.1.15,2013-06-16 05:38:00,
2013-06-16 01:44:00,66.2,62.5,30.02,SW,227,3.0,3.0,88,0.00,,,0.00,Wunderground v.1.15,2013-06-16 05:44:00,
2013-06-16 01:50:00,66.1,62.4,30.02,SSW,204,2.0,3.0,88,0.00,,,0.00,Wunderground v.1.15,2013-06-16 05:50:00,
2013-06-16 01:55:00,66.0,62.3,30.02,SSW,211,3.0,4.0,88,0.00,,,0.00,Wunderground v.1.15,2013-06-16 05:55:00,
2013-06-16 02:00:00,66.0,62.3,30.02,SSW,202,3.0,6.0,88,0.00,,,0.00,VWS V14.01,2013-06-16 06:00:00,
2013-06-16 02:01:00,66.0,62.3,30.02,SSW,204,3.0,4.0,88,0.00,,,0.00,Wunderground v.1.15,2013-06-16 06:01:00,
2013-06-16 02:07:00,66.0,62.3,30.02,SW,225,3.0,5.0,88,0.00,,,0.00,Wunderground v.1.15,2013-06-16 06:07:00,
2013-06-16 02:13:00,65.9,62.2,30.02,SW,224,2.0,4.0,88,0.00,,,0.00,Wunderground v.1.15,2013-06-16 06:13:00,
2013-06-16 02:19:00,66.0,62.3,30.01,SW,217,3.0,4.0,88,0.00,,,0.00,Wunderground v.1.15,2013-06-16 06:19:00,
2013-06-16 02:24:00,66.1,62.4,30.01,SSW,203,4.0,4.0,88,0.00,,,0.00,Wunderground v.1.15,2013-06-16 06:24:00,
2013-06-16 02:30:00,66.1,62.4,30.01,SW,214,4.0,4.0,88,0.00,,,0.00,Wunderground v.1.15,2013-06-16 06:30:00,
2013-06-16 02:36:00,66.1,62.4,30.01,SSW,196,4.0,7.0,88,0.00,,,0.00,Wunderground v.1.15,2013-06-16 06:36:00,
2013-06-16 02:42:00,66.1,62.4,30.01,SSW,209,4.0,7.0,88,0.00,,,0.00,Wunderground v.1.15,2013-06-16 06:42:00,
2013-06-16 02:47:00,66.2,62.5,30.01,South,189,4.0,7.0,88,0.00,,,0.00,Wunderground v.1.15,2013-06-16 06:47:00,
2013-06-16 02:53:00,66.2,62.5,30.01,SW,227,5.0,5.0,88,0.00,,,0.00,Wunderground v.1.15,2013-06-16 06:53:00,
2013-06-16 02:59:00,66.3,62.6,30.01,SW,220,4.0,6.0,88,0.00,,,0.00,Wunderground v.1.15,2013-06-16 06:59:00,
2013-06-16 03:00:00,66.3,62.6,30.01,SSW,202,4.0,8.0,88,0.00,,,0.00,VWS V14.01,2013-06-16 07:00:00,
2013-06-16 03:05:00,66.3,62.3,30.01,SSW,200,5.0,7.0,87,0.00,,,0.00,Wunderground v.1.15,2013-06-16 07:05:00,
2013-06-16 03:10:00,66.3,62.6,30.01,SSW,197,5.0,6.0,88,0.00,,,0.00,Wunderground v.1.15,2013-06-16 07:10:00,
2013-06-16 03:15:00,66.2,62.5,30.00,SSW,203,5.0,7.0,88,0.00,,,0.00,Wunderground v.1.15,2013-06-16 07:15:00,
2013-06-16 03:21:00,66.2,62.5,30.00,SSW,207,5.0,5.0,88,0.00,,,0.00,Wunderground v.1.15,2013-06-16 07:21:00,
2013-06-16 03:27:00,66.1,62.4,30.00,SW,214,4.0,5.0,88,0.00,,,0.00,Wunderground v.1.15,2013-06-16 07:27:00,
2013-06-16 03:30:00,66.1,62.5,30.00,SSW,202,5.0,9.0,88,0.00,,,0.00,VWS V14.01,2013-06-16 07:30:00,
2013-06-16 03:33:00,66.1,62.4,30.00,SW,219,4.0,6.0,88,0.00,,,0.00,Wunderground v.1.15,2013-06-16 07:33:00,
2013-06-16 03:38:00,66.1,62.4,30.00,SW,214,4.0,6.0,88,0.00,,,0.00,Wunderground v.1.15,2013-06-16 07:38:00,
2013-06-16 03:43:00,66.1,62.4,30.00,SSW,210,4.0,4.0,88,0.00,,,0.00,Wunderground v.1.15,2013-06-16 07:43:00,
2013-06-16 03:49:00,66.0,62.3,30.00,SSW,208,3.0,4.0,88,0.00,,,0.00,Wunderground v.1.15,2013-06-16 07:49:00,
2013-06-16 03:54:00,65.9,62.6,30.01,SW,220,2.0,3.0,89,0.00,,,0.00,Wunderground v.1.15,2013-06-16 07:54:00,
2013-06-16 04:00:00,65.7,62.4,30.01,SW,225,2.0,3.0,89,0.00,,,0.00,Wunderground v.1.15,2013-06-16 08:00:00,
2013-06-16 04:06:00,65.6,62.3,30.01,SW,221,2.0,3.0,89,0.00,,,0.00,Wunderground v.1.15,2013-06-16 08:06:00,
2013-06-16 04:12:00,65.5,62.2,30.01,SSW,196,2.0,2.0,89,0.00,,,0.00,Wunderground v.1.15,2013-06-16 08:12:00,
2013-06-16 04:18:00,65.3,62.3,30.01,SSW,200,2.0,4.0,90,0.00,,,0.00,Wunderground v.1.15,2013-06-16 08:18:00,
2013-06-16 04:24:00,65.2,62.2,30.02,SSW,196,2.0,3.0,90,0.00,,,0.00,Wunderground v.1.15,2013-06-16 08:24:00,
2013-06-16 04:30:00,65.1,62.1,30.02,SSW,198,2.0,2.0,90,0.00,,,0.00,Wunderground v.1.15,2013-06-16 08:30:00,
2013-06-16 04:36:00,65.0,62.0,30.02,SSW,213,1.0,4.0,90,0.00,,,0.00,Wunderground v.1.15,2013-06-16 08:36:00,
2013-06-16 04:42:00,65.0,62.3,30.02,SW,223,2.0,5.0,91,0.00,,,0.00,Wunderground v.1.15,2013-06-16 08:42:00,
2013-06-16 04:47:00,65.0,62.3,30.02,SW,229,3.0,5.0,91,0.00,,,0.00,Wunderground v.1.15,2013-06-16 08:47:00,
2013-06-16 04:52:00,65.0,62.3,30.02,SW,216,2.0,4.0,91,0.00,,,0.00,Wunderground v.1.15,2013-06-16 08:52:00,
2013-06-16 04:58:00,65.1,62.4,30.02,SW,218,3.0,5.0,91,0.00,,,0.00,Wunderground v.1.15,2013-06-16 08:58:00,
2013-06-16 05:00:00,65.1,62.4,30.02,SW,225,2.0,7.0,91,0.00,,,0.00,VWS V14.01,2013-06-16 09:00:00,
2013-06-16 05:04:00,65.2,62.2,30.02,SW,231,4.0,4.0,90,0.00,,,0.00,Wunderground v.1.15,2013-06-16 09:04:00,
2013-06-16 05:10:00,65.3,62.3,30.02,SSW,213,4.0,4.0,90,0.00,,,0.00,Wunderground v.1.15,2013-06-16 09:10:00,
2013-06-16 05:16:00,65.4,62.4,30.02,WSW,254,4.0,6.0,90,0.00,,,0.00,Wunderground v.1.15,2013-06-16 09:16:00,
2013-06-16 05:22:00,65.6,62.6,30.02,SW,223,4.0,7.0,90,0.00,,,0.00,Wunderground v.1.15,2013-06-16 09:22:00,
2013-06-16 05:27:00,65.7,62.7,30.02,SW,234,4.0,7.0,90,0.00,,,0.00,Wunderground v.1.15,2013-06-16 09:27:00,
2013-06-16 05:30:00,65.8,62.5,30.02,SSW,202,4.0,9.0,89,0.00,,,0.00,VWS V14.01,2013-06-16 09:30:00,
2013-06-16 05:33:00,65.8,62.5,30.02,South,188,4.0,5.0,89,0.00,,,0.00,Wunderground v.1.15,2013-06-16 09:33:00,
2013-06-16 05:39:00,65.8,62.5,30.02,SSW,200,4.0,7.0,89,0.00,,,0.00,Wunderground v.1.15,2013-06-16 09:39:00,
2013-06-16 05:45:00,65.8,62.5,30.02,SW,223,4.0,5.0,89,0.00,,,0.00,Wunderground v.1.15,2013-06-16 09:45:00,
2013-06-16 05:51:00,65.6,62.6,30.02,SW,218,4.0,6.0,90,0.00,,,0.00,Wunderground v.1.15,2013-06-16 09:51:00,
2013-06-16 05:57:00,65.5,62.5,30.03,SW,219,4.0,6.0,90,0.00,,,0.00,Wunderground v.1.15,2013-06-16 09:57:00,
2013-06-16 06:00:00,65.5,62.5,30.03,SSW,202,4.0,9.0,90,0.00,,,0.00,VWS V14.01,2013-06-16 10:00:00,
2013-06-16 06:03:00,65.5,62.5,30.03,SSW,196,4.0,6.0,90,0.00,,,0.00,Wunderground v.1.15,2013-06-16 10:03:00,
2013-06-16 06:08:00,65.4,62.4,30.03,SW,217,4.0,6.0,90,0.00,,,0.00,Wunderground v.1.15,2013-06-16 10:08:00,
2013-06-16 06:14:00,65.5,62.5,30.03,SW,214,3.0,4.0,90,0.00,,,0.00,Wunderground v.1.15,2013-06-16 10:14:00,
2013-06-16 06:20:00,65.5,62.5,30.03,SSW,207,2.0,2.0,90,0.00,,,0.00,Wunderground v.1.15,2013-06-16 10:20:00,
2013-06-16 06:25:00,65.4,62.4,30.03,WSW,243,2.0,3.0,90,0.00,,,0.00,Wunderground v.1.15,2013-06-16 10:25:00,
2013-06-16 06:30:00,65.4,62.4,30.03,SW,225,2.0,8.0,90,0.00,,,0.00,VWS V14.01,2013-06-16 10:30:00,
2013-06-16 06:31:00,65.4,62.7,30.03,WSW,243,2.0,2.0,91,0.00,,,0.00,Wunderground v.1.15,2013-06-16 10:31:00,
2013-06-16 06:37:00,65.3,62.6,30.04,SSW,212,2.0,4.0,91,0.00,,,0.00,Wunderground v.1.15,2013-06-16 10:37:00,
2013-06-16 06:42:00,65.3,62.6,30.04,SW,214,2.0,4.0,91,0.00,,,0.00,Wunderground v.1.15,2013-06-16 10:42:00,
2013-06-16 06:48:00,65.3,62.6,30.04,SSW,202,3.0,7.0,91,0.00,,,0.00,Wunderground v.1.15,2013-06-16 10:48:00,
2013-06-16 06:54:00,65.5,62.8,30.04,SW,215,4.0,5.0,91,0.00,,,0.00,Wunderground v.1.15,2013-06-16 10:54:00,
2013-06-16 07:00:00,65.6,62.9,30.05,WSW,238,4.0,4.0,91,0.00,,,0.00,Wunderground v.1.15,2013-06-16 11:00:00,
2013-06-16 07:06:00,65.8,63.1,30.05,SSW,202,4.0,6.0,91,0.00,,,0.00,Wunderground v.1.15,2013-06-16 11:06:00,
2013-06-16 07:12:00,66.1,63.1,30.05,WSW,248,5.0,5.0,90,0.00,,,0.00,Wunderground v.1.15,2013-06-16 11:12:00,
2013-06-16 07:18:00,66.3,63.3,30.04,SW,228,5.0,7.0,90,0.00,,,0.00,Wunderground v.1.15,2013-06-16 11:18:00,
2013-06-16 07:24:00,66.7,63.7,30.04,SW,214,5.0,7.0,90,0.00,,,0.00,Wunderground v.1.15,2013-06-16 11:24:00,
2013-06-16 07:30:00,67.0,63.6,30.05,SW,233,5.0,5.0,89,0.00,,,0.00,Wunderground v.1.15,2013-06-16 11:30:00,
2013-06-16 07:36:00,67.4,63.7,30.05,SW,232,5.0,7.0,88,0.00,,,0.00,Wunderground v.1.15,2013-06-16 11:36:00,
2013-06-16 07:42:00,67.7,64.0,30.05,SSW,194,5.0,5.0,88,0.00,,,0.00,Wunderground v.1.15,2013-06-16 11:42:00,
2013-06-16 07:48:00,68.2,64.5,30.05,SSW,198,5.0,9.0,88,0.00,,,0.00,Wunderground v.1.15,2013-06-16 11:48:00,
2013-06-16 07:54:00,68.6,64.9,30.05,SW,218,6.0,8.0,88,0.00,,,0.00,Wunderground v.1.15,2013-06-16 11:54:00,
2013-06-16 08:00:00,68.7,64.7,30.05,SSW,194,6.0,6.0,87,0.00,,,0.00,Wunderground v.1.15,2013-06-16 12:00:00,
2013-06-16 08:06:00,68.7,64.7,30.05,SW,236,6.0,7.0,87,0.00,,,0.00,Wunderground v.1.15,2013-06-16 12:06:00,
2013-06-16 08:12:00,69.3,64.9,30.05,WSW,237,6.0,6.0,86,0.00,,,0.00,Wunderground v.1.15,2013-06-16 12:12:00,
2013-06-16 08:17:00,69.8,65.1,30.05,WSW,242,6.0,8.0,85,0.00,,,0.00,Wunderground v.1.15,2013-06-16 12:17:00,
2013-06-16 08:23:00,70.4,65.7,30.05,SSW,205,6.0,8.0,85,0.00,,,0.00,Wunderground v.1.15,2013-06-16 12:23:00,
2013-06-16 08:29:00,70.8,65.0,30.05,SW,226,7.0,11.0,82,0.00,,,0.00,Wunderground v.1.15,2013-06-16 12:29:00,
2013-06-16 08:30:00,70.8,65.0,30.05,SW,225,7.0,14.0,82,0.00,,,0.00,VWS V14.01,2013-06-16 12:30:00,
2013-06-16 08:35:00,71.1,65.0,30.05,West,260,9.0,13.0,81,0.00,,,0.00,Wunderground v.1.15,2013-06-16 12:35:00,
2013-06-16 08:41:00,71.4,65.3,30.05,SW,223,8.0,8.0,81,0.00,,,0.00,Wunderground v.1.15,2013-06-16 12:41:00,
2013-06-16 08:47:00,71.9,65.8,30.05,SW,223,8.0,12.0,81,0.00,,,0.00,Wunderground v.1.15,2013-06-16 12:47:00,
2013-06-16 08:52:00,72.4,66.9,30.05,SW,218,8.0,11.0,83,0.00,,,0.00,Wunderground v.1.15,2013-06-16 12:52:00,
2013-06-16 08:58:00,72.9,66.4,30.05,SW,222,9.0,11.0,80,0.00,,,0.00,Wunderground v.1.15,2013-06-16 12:58:00,
2013-06-16 09:00:00,72.9,66.4,30.05,SW,225,8.0,15.0,80,0.00,,,0.00,VWS V14.01,2013-06-16 13:00:00,
2013-06-16 09:04:00,73.2,65.9,30.05,SSW,207,10.0,13.0,78,0.00,,,0.00,Wunderground v.1.15,2013-06-16 13:04:00,
2013-06-16 09:10:00,73.5,66.2,30.05,SW,231,9.0,11.0,78,0.00,,,0.00,Wunderground v.1.15,2013-06-16 13:10:00,
2013-06-16 09:15:00,74.0,66.3,30.05,SW,236,8.0,11.0,77,0.00,,,0.00,Wunderground v.1.15,2013-06-16 13:15:00,
2013-06-16 09:21:00,74.3,66.6,30.05,SW,228,8.0,9.0,77,0.00,,,0.00,Wunderground v.1.15,2013-06-16 13:21:00,
2013-06-16 09:27:00,74.8,67.1,30.05,WSW,242,9.0,12.0,77,0.00,,,0.00,Wunderground v.1.15,2013-06-16 13:27:00,
2013-06-16 09:30:00,75.1,67.0,30.05,SW,225,8.0,17.0,76,0.00,,,0.00,VWS V14.01,2013-06-16 13:30:00,
2013-06-16 09:33:00,75.2,66.3,30.05,SSW,202,8.0,11.0,74,0.00,,,0.00,Wunderground v.1.15,2013-06-16 13:33:00,
2013-06-16 09:39:00,75.3,66.4,30.05,WSW,246,8.0,13.0,74,0.00,,,0.00,Wunderground v.1.15,2013-06-16 13:39:00,
2013-06-16 09:45:00,75.2,66.3,30.04,SW,234,9.0,16.0,74,0.00,,,0.00,Wunderground v.1.15,2013-06-16 13:45:00,
2013-06-16 09:50:00,75.4,66.5,30.04,WSW,257,9.0,9.0,74,0.00,,,0.00,Wunderground v.1.15,2013-06-16 13:50:00,
2013-06-16 09:56:00,76.0,67.1,30.04,SSE,160,8.0,9.0,74,0.00,,,0.00,Wunderground v.1.15,2013-06-16 13:56:00,
2013-06-16 10:00:00,76.3,67.0,30.04,SW,225,8.0,18.0,73,0.00,,,0.00,VWS V14.01,2013-06-16 14:00:00,
2013-06-16 10:01:00,76.5,67.2,30.03,WSW,250,7.0,8.0,73,0.00,,,0.00,Wunderground v.1.15,2013-06-16 14:01:00,
2013-06-16 10:07:00,77.0,67.3,30.03,SE,144,7.0,9.0,72,0.00,,,0.00,Wunderground v.1.15,2013-06-16 14:07:00,
2013-06-16 10:13:00,77.6,67.9,30.03,SW,223,7.0,7.0,72,0.00,,,0.00,Wunderground v.1.15,2013-06-16 14:13:00,
2013-06-16 10:19:00,77.6,67.4,30.02,SW,221,8.0,12.0,71,0.00,,,0.00,Wunderground v.1.15,2013-06-16 14:19:00,
2013-06-16 10:25:00,77.8,67.2,30.02,SW,227,9.0,10.0,70,0.00,,,0.00,Wunderground v.1.15,2013-06-16 14:25:00,
2013-06-16 10:30:00,78.0,67.8,30.02,SW,225,7.0,14.0,71,0.00,,,0.00,VWS V14.01,2013-06-16 14:30:00,
2013-06-16 10:31:00,78.2,68.0,30.02,WSW,240,7.0,8.0,71,0.00,,,0.00,Wunderground v.1.15,2013-06-16 14:31:00,
2013-06-16 10:37:00,78.7,68.5,30.02,SW,223,7.0,10.0,71,0.00,,,0.00,Wunderground v.1.15,2013-06-16 14:37:00,
2013-06-16 10:43:00,79.1,68.5,30.02,SW,224,7.0,8.0,70,0.00,,,0.00,Wunderground v.1.15,2013-06-16 14:43:00,
2013-06-16 10:49:00,79.3,67.8,30.02,SSW,196,9.0,16.0,68,0.00,,,0.00,Wunderground v.1.15,2013-06-16 14:49:00,
2013-06-16 10:55:00,79.4,67.5,30.02,SW,227,10.0,16.0,67,0.00,,,0.00,Wunderground v.1.15,2013-06-16 14:55:00,
2013-06-16 11:00:00,79.6,67.7,30.02,SW,225,9.0,17.0,67,0.00,,,0.00,VWS V14.01,2013-06-16 15:00:00,
2013-06-16 11:01:00,79.7,68.6,30.02,SW,223,10.0,10.0,69,0.00,,,0.00,Wunderground v.1.15,2013-06-16 15:01:00,
2013-06-16 11:06:00,80.2,68.2,30.02,SW,216,9.0,12.0,67,0.00,,,0.00,Wunderground v.1.15,2013-06-16 15:06:00,
2013-06-16 11:12:00,80.3,69.6,30.02,SW,232,9.0,14.0,70,0.00,,,0.00,Wunderground v.1.15,2013-06-16 15:12:00,
2013-06-16 11:18:00,80.7,68.7,30.02,SW,227,10.0,15.0,67,0.00,,,0.00,Wunderground v.1.15,2013-06-16 15:18:00,
2013-06-16 11:24:00,80.9,68.0,30.02,WSW,245,10.0,11.0,65,0.00,,,0.00,Wunderground v.1.15,2013-06-16 15:24:00,
2013-06-16 11:29:00,81.1,68.7,30.02,SW,234,9.0,12.0,66,0.00,,,0.00,Wunderground v.1.15,2013-06-16 15:29:00,
2013-06-16 11:30:00,81.1,68.7,30.02,SW,225,9.0,18.0,66,0.00,,,0.00,VWS V14.01,2013-06-16 15:30:00,
2013-06-16 11:35:00,81.5,67.7,30.01,SW,232,9.0,16.0,63,0.00,,,0.00,Wunderground v.1.15,2013-06-16 15:35:00,
2013-06-16 11:40:00,81.4,68.5,30.01,WSW,240,10.0,11.0,65,0.00,,,0.00,Wunderground v.1.15,2013-06-16 15:40:00,
2013-06-16 11:46:00,81.6,68.7,30.01,SSW,210,9.0,16.0,65,0.00,,,0.00,Wunderground v.1.15,2013-06-16 15:46:00,
2013-06-16 11:51:00,81.8,68.9,30.01,SW,215,10.0,11.0,65,0.00,,,0.00,Wunderground v.1.15,2013-06-16 15:51:00,
2013-06-16 11:57:00,82.1,68.3,30.01,SW,223,10.0,14.0,63,0.00,,,0.00,Wunderground v.1.15,2013-06-16 15:57:00,
2013-06-16 12:00:00,82.1,69.2,30.01,SW,225,10.0,18.0,65,0.00,,,0.00,VWS V14.01,2013-06-16 16:00:00,
2013-06-16 12:03:00,82.3,68.4,30.00,SW,219,10.0,10.0,63,0.00,,,0.00,Wunderground v.1.15,2013-06-16 16:03:00,
2013-06-16 12:09:00,82.5,68.6,30.00,SW,214,8.0,11.0,63,0.00,,,0.00,Wunderground v.1.15,2013-06-16 16:09:00,
2013-06-16 12:15:00,82.9,70.4,29.99,SSW,205,7.0,11.0,66,0.00,,,0.00,Wunderground v.1.15,2013-06-16 16:15:00,
2013-06-16 12:21:00,83.1,67.8,29.99,SW,219,8.0,13.0,60,0.00,,,0.00,Wunderground v.1.15,2013-06-16 16:21:00,
2013-06-16 12:27:00,83.2,68.8,29.99,South,190,9.0,13.0,62,0.00,,,0.00,Wunderground v.1.15,2013-06-16 16:27:00,
2013-06-16 12:30:00,83.3,69.4,29.99,SW,225,8.0,15.0,63,0.00,,,0.00,VWS V14.01,2013-06-16 16:30:00,
2013-06-16 12:33:00,83.5,69.1,29.99,WSW,252,8.0,12.0,62,0.00,,,0.00,Wunderground v.1.15,2013-06-16 16:33:00,
2013-06-16 12:39:00,83.8,67.9,29.99,SW,226,9.0,15.0,59,0.00,,,0.00,Wunderground v.1.15,2013-06-16 16:39:00,
2013-06-16 12:45:00,83.9,68.5,29.99,SW,231,9.0,13.0,60,0.00,,,0.00,Wunderground v.1.15,2013-06-16 16:45:00,
2013-06-16 12:51:00,84.1,70.6,29.99,SW,227,8.0,9.0,64,0.00,,,0.00,Wunderground v.1.15,2013-06-16 16:51:00,
2013-06-16 12:57:00,84.1,68.2,29.99,West,264,8.0,12.0,59,0.00,,,0.00,Wunderground v.1.15,2013-06-16 16:57:00,
2013-06-16 13:00:00,84.0,67.7,29.99,SW,225,9.0,16.0,58,0.00,,,0.00,VWS V14.01,2013-06-16 17:00:00,
2013-06-16 13:02:00,83.9,69.0,29.98,SW,227,8.0,9.0,61,0.00,,,0.00,Wunderground v.1.15,2013-06-16 17:02:00,
2013-06-16 13:08:00,84.1,68.7,29.98,WSW,250,8.0,10.0,60,0.00,,,0.00,Wunderground v.1.15,2013-06-16 17:08:00,
2013-06-16 13:14:00,84.6,70.6,29.98,SSW,211,8.0,12.0,63,0.00,,,0.00,Wunderground v.1.15,2013-06-16 17:14:00,
2013-06-16 13:20:00,84.5,69.1,29.99,WNW,295,9.0,10.0,60,0.00,,,0.00,Wunderground v.1.15,2013-06-16 17:20:00,
2013-06-16 13:26:00,83.6,68.7,29.98,WSW,246,8.0,14.0,61,0.00,,,0.00,Wunderground v.1.15,2013-06-16 17:26:00,
2013-06-16 13:30:00,83.4,69.9,29.99,SW,225,8.0,17.0,64,0.00,,,0.00,VWS V14.01,2013-06-16 17:30:00,
2013-06-16 13:32:00,83.7,68.8,29.98,West,259,8.0,15.0,61,0.00,,,0.00,Wunderground v.1.15,2013-06-16 17:32:00,
2013-06-16 13:38:00,84.5,69.1,29.98,SW,232,10.0,15.0,60,0.00,,,0.00,Wunderground v.1.15,2013-06-16 17:38:00,
2013-06-16 13:44:00,84.3,68.4,29.98,SW,218,11.0,13.0,59,0.00,,,0.00,Wunderground v.1.15,2013-06-16 17:44:00,
2013-06-16 13:50:00,84.7,69.8,29.98,WSW,238,10.0,11.0,61,0.00,,,0.00,Wunderground v.1.15,2013-06-16 17:50:00,
2013-06-16 13:55:00,85.2,69.7,29.98,West,267,9.0,11.0,60,0.00,,,0.00,Wunderground v.1.15,2013-06-16 17:55:00,
2013-06-16 14:00:00,85.2,70.7,29.98,SW,225,9.0,21.0,62,0.00,,,0.00,VWS V14.01,2013-06-16 18:00:00,
2013-06-16 14:01:00,85.0,69.6,29.98,SW,236,8.0,13.0,60,0.00,,,0.00,Wunderground v.1.15,2013-06-16 18:01:00,
2013-06-16 14:07:00,84.6,69.2,29.98,WSW,250,9.0,13.0,60,0.00,,,0.00,Wunderground v.1.15,2013-06-16 18:07:00,
2013-06-16 14:13:00,83.5,68.6,29.98,SW,223,10.0,13.0,61,0.00,,,0.00,Wunderground v.1.15,2013-06-16 18:13:00,
2013-06-16 14:19:00,83.4,69.0,29.98,South,191,9.0,13.0,62,0.00,,,0.00,Wunderground v.1.15,2013-06-16 18:19:00,
2013-06-16 14:25:00,83.9,69.5,29.97,SW,235,8.0,14.0,62,0.00,,,0.00,Wunderground v.1.15,2013-06-16 18:25:00,
2013-06-16 14:30:00,84.3,69.9,29.97,SW,225,9.0,17.0,62,0.00,,,0.00,VWS V14.01,2013-06-16 18:30:00,
2013-06-16 14:31:00,84.5,69.1,29.97,WSW,241,9.0,9.0,60,0.00,,,0.00,Wunderground v.1.15,2013-06-16 18:31:00,
2013-06-16 14:36:00,84.9,69.5,29.97,SW,226,8.0,10.0,60,0.00,,,0.00,Wunderground v.1.15,2013-06-16 18:36:00,
2013-06-16 14:42:00,84.8,68.4,29.97,SW,223,9.0,18.0,58,0.00,,,0.00,Wunderground v.1.15,2013-06-16 18:42:00,
2013-06-16 14:48:00,84.8,69.9,29.97,SSW,205,9.0,18.0,61,0.00,,,0.00,Wunderground v.1.15,2013-06-16 18:48:00,
2013-06-16 14:53:00,84.8,69.9,29.97,SW,235,8.0,10.0,61,0.00,,,0.00,Wunderground v.1.15,2013-06-16 18:53:00,
2013-06-16 14:59:00,84.8,70.3,29.97,SW,219,8.0,10.0,62,0.00,,,0.00,Wunderground v.1.15,2013-06-16 18:59:00,
2013-06-16 15:00:00,84.9,70.4,29.97,SW,225,8.0,18.0,62,0.00,,,0.00,VWS V14.01,2013-06-16 19:00:00,
2013-06-16 15:05:00,84.7,69.3,29.97,SW,225,6.0,9.0,60,0.00,,,0.00,Wunderground v.1.15,2013-06-16 19:05:00,
2013-06-16 15:10:00,84.5,70.0,29.96,SW,227,7.0,10.0,62,0.00,,,0.00,Wunderground v.1.15,2013-06-16 19:10:00,
2013-06-16 15:15:00,84.5,70.0,29.96,SSW,209,8.0,12.0,62,0.00,,,0.00,Wunderground v.1.15,2013-06-16 19:15:00,
2013-06-16 15:20:00,84.4,69.0,29.97,WSW,244,8.0,9.0,60,0.00,,,0.00,Wunderground v.1.15,2013-06-16 19:20:00,
2013-06-16 15:26:00,83.9,69.0,29.96,SW,228,8.0,13.0,61,0.00,,,0.00,Wunderground v.1.15,2013-06-16 19:26:00,
2013-06-16 15:30:00,83.8,69.4,29.96,SW,225,8.0,15.0,62,0.00,,,0.00,VWS V14.01,2013-06-16 19:30:00,
2013-06-16 15:31:00,83.8,69.9,29.97,WSW,252,9.0,11.0,63,0.00,,,0.00,Wunderground v.1.15,2013-06-16 19:31:00,
2013-06-16 15:37:00,84.1,70.6,29.96,SW,229,8.0,11.0,64,0.00,,,0.00,Wunderground v.1.15,2013-06-16 19:37:00,
2013-06-16 15:42:00,84.2,71.2,29.96,SSW,206,8.0,8.0,65,0.00,,,0.00,Wunderground v.1.15,2013-06-16 19:42:00,
2013-06-16 15:47:00,84.7,70.2,29.96,WSW,248,8.0,11.0,62,0.00,,,0.00,Wunderground v.1.15,2013-06-16 19:47:00,
2013-06-16 15:53:00,85.3,70.3,29.95,WSW,252,8.0,8.0,61,0.00,,,0.00,Wunderground v.1.15,2013-06-16 19:53:00,
2013-06-16 15:59:00,85.3,70.3,29.96,SW,224,7.0,12.0,61,0.00,,,0.00,Wunderground v.1.15,2013-06-16 19:59:00,
2013-06-16 16:00:00,85.3,70.3,29.96,SW,225,8.0,16.0,61,0.00,,,0.00,VWS V14.01,2013-06-16 20:00:00,
2013-06-16 16:05:00,85.2,69.3,29.96,SW,225,8.0,12.0,59,0.00,,,0.00,Wunderground v.1.15,2013-06-16 20:05:00,
2013-06-16 16:11:00,85.6,71.6,29.95,South,178,6.0,10.0,63,0.00,,,0.00,Wunderground v.1.15,2013-06-16 20:11:00,
2013-06-16 16:17:00,86.0,70.5,29.95,South,175,6.0,13.0,60,0.00,,,0.00,Wunderground v.1.15,2013-06-16 20:17:00,
2013-06-16 16:23:00,85.9,70.9,29.95,SW,227,7.0,12.0,61,0.00,,,0.00,Wunderground v.1.15,2013-06-16 20:23:00,
2013-06-16 16:29:00,86.1,71.6,29.95,SSW,200,7.0,12.0,62,0.00,,,0.00,Wunderground v.1.15,2013-06-16 20:29:00,
2013-06-16 16:30:00,86.1,71.6,29.95,SW,225,7.0,16.0,62,0.00,,,0.00,VWS V14.01,2013-06-16 20:30:00,
2013-06-16 16:35:00,85.9,70.4,29.95,SW,214,7.0,10.0,60,0.00,,,0.00,Wunderground v.1.15,2013-06-16 20:35:00,
2013-06-16 16:41:00,86.0,70.5,29.95,SSW,211,8.0,8.0,60,0.00,,,0.00,Wunderground v.1.15,2013-06-16 20:41:00,
2013-06-16 16:46:00,86.1,70.6,29.95,SW,227,8.0,11.0,60,0.00,,,0.00,Wunderground v.1.15,2013-06-16 20:46:00,
2013-06-16 16:52:00,86.0,69.5,29.94,SW,223,8.0,9.0,58,0.00,,,0.00,Wunderground v.1.15,2013-06-16 20:52:00,
2013-06-16 16:58:00,85.8,69.3,29.94,West,263,9.0,11.0,58,0.00,,,0.00,Wunderground v.1.15,2013-06-16 20:58:00,
2013-06-16 17:00:00,85.7,69.7,29.94,SW,225,8.0,15.0,59,0.00,,,0.00,VWS V14.01,2013-06-16 21:00:00,
2013-06-16 17:04:00,85.2,69.7,29.94,SSW,200,9.0,11.0,60,0.00,,,0.00,Wunderground v.1.15,2013-06-16 21:04:00,
2013-06-16 17:10:00,84.6,69.2,29.94,SW,223,8.0,8.0,60,0.00,,,0.00,Wunderground v.1.15,2013-06-16 21:10:00,
2013-06-16 17:16:00,84.1,69.7,29.94,SW,216,8.0,11.0,62,0.00,,,0.00,Wunderground v.1.15,2013-06-16 21:16:00,
2013-06-16 17:22:00,83.8,69.4,29.94,SSW,200,7.0,8.0,62,0.00,,,0.00,Wunderground v.1.15,2013-06-16 21:22:00,
2013-06-16 17:27:00,83.7,69.8,29.94,SSW,192,6.0,8.0,63,0.00,,,0.00,Wunderground v.1.15,2013-06-16 21:27:00,
2013-06-16 17:30:00,83.7,70.2,29.94,SW,225,7.0,12.0,64,0.00,,,0.00,VWS V14.01,2013-06-16 21:30:00,
2013-06-16 17:33:00,83.6,69.7,29.94,WSW,242,5.0,7.0,63,0.00,,,0.00,Wunderground v.1.15,2013-06-16 21:33:00,
2013-06-16 17:38:00,83.6,69.7,29.94,SW,231,6.0,8.0,63,0.00,,,0.00,Wunderground v.1.15,2013-06-16 21:38:00,
2013-06-16 17:43:00,83.6,70.6,29.94,SW,221,6.0,10.0,65,0.00,,,0.00,Wunderground v.1.15,2013-06-16 21:43:00,
2013-06-16 17:49:00,83.7,70.7,29.94,SW,227,6.0,10.0,65,0.00,,,0.00,Wunderground v.1.15,2013-06-16 21:49:00,
2013-06-16 17:54:00,83.7,70.7,29.94,SSW,213,5.0,7.0,65,0.00,,,0.00,Wunderground v.1.15,2013-06-16 21:54:00,
2013-06-16 18:00:00,83.8,71.7,29.94,SW,221,5.0,5.0,67,0.00,,,0.00,Wunderground v.1.15,2013-06-16 22:00:00,
2013-06-16 18:06:00,84.0,71.4,29.94,SW,219,5.0,10.0,66,0.00,,,0.00,Wunderground v.1.15,2013-06-16 22:06:00,
2013-06-16 18:12:00,84.0,71.4,29.94,WSW,242,5.0,7.0,66,0.00,,,0.00,Wunderground v.1.15,2013-06-16 22:12:00,
2013-06-16 18:17:00,83.8,71.7,29.94,SW,216,6.0,7.0,67,0.00,,,0.00,Wunderground v.1.15,2013-06-16 22:17:00,
2013-06-16 18:23:00,83.5,70.5,29.94,SSW,205,6.0,7.0,65,0.00,,,0.00,Wunderground v.1.15,2013-06-16 22:23:00,
2013-06-16 18:29:00,83.4,71.3,29.94,SW,217,6.0,7.0,67,0.00,,,0.00,Wunderground v.1.15,2013-06-16 22:29:00,
2013-06-16 18:30:00,83.4,71.3,29.94,SSW,202,6.0,10.0,67,0.00,,,0.00,VWS V14.01,2013-06-16 22:30:00,
2013-06-16 18:35:00,83.4,71.3,29.94,SW,236,5.0,8.0,67,0.00,,,0.00,Wunderground v.1.15,2013-06-16 22:35:00,
2013-06-16 18:41:00,83.2,71.5,29.94,SSW,213,5.0,5.0,68,0.00,,,0.00,Wunderground v.1.15,2013-06-16 22:41:00,
2013-06-16 18:47:00,82.9,71.3,29.95,SW,225,5.0,7.0,68,0.00,,,0.00,Wunderground v.1.15,2013-06-16 22:47:00,
2013-06-16 18:53:00,82.7,70.6,29.94,SSW,213,5.0,7.0,67,0.00,,,0.00,Wunderground v.1.15,2013-06-16 22:53:00,
2013-06-16 18:59:00,82.5,70.9,29.94,SSW,207,6.0,7.0,68,0.00,,,0.00,Wunderground v.1.15,2013-06-16 22:59:00,
2013-06-16 19:00:00,82.5,70.9,29.94,SW,225,5.0,10.0,68,0.00,,,0.00,VWS V14.01,2013-06-16 23:00:00,
2013-06-16 19:05:00,82.3,71.1,29.95,SW,216,5.0,6.0,69,0.00,,,0.00,Wunderground v.1.15,2013-06-16 23:05:00,
2013-06-16 19:11:00,82.2,71.0,29.94,SW,221,4.0,4.0,69,0.00,,,0.00,Wunderground v.1.15,2013-06-16 23:11:00,
2013-06-16 19:16:00,82.0,70.8,29.94,SSE,167,4.0,6.0,69,0.00,,,0.00,Wunderground v.1.15,2013-06-16 23:16:00,
2013-06-16 19:22:00,81.8,70.6,29.94,SSW,210,4.0,4.0,69,0.00,,,0.00,Wunderground v.1.15,2013-06-16 23:22:00,
2013-06-16 19:28:00,81.7,71.4,29.94,SSW,205,3.0,4.0,71,0.00,,,0.00,Wunderground v.1.15,2013-06-16 23:28:00,
2013-06-16 19:30:00,81.6,71.3,29.94,SW,225,4.0,7.0,71,0.00,,,0.00,VWS V14.01,2013-06-16 23:30:00,
2013-06-16 19:34:00,81.5,71.2,29.95,SW,225,4.0,6.0,71,0.00,,,0.00,Wunderground v.1.15,2013-06-16 23:34:00,
2013-06-16 19:39:00,81.4,70.7,29.95,SW,215,4.0,6.0,70,0.00,,,0.00,Wunderground v.1.15,2013-06-16 23:39:00,
2013-06-16 19:45:00,81.2,70.9,29.95,SW,218,4.0,5.0,71,0.00,,,0.00,Wunderground v.1.15,2013-06-16 23:45:00,
2013-06-16 19:51:00,81.0,70.7,29.95,SW,215,4.0,4.0,71,0.00,,,0.00,Wunderground v.1.15,2013-06-16 23:51:00,
2013-06-16 19:57:00,80.7,70.4,29.95,SW,215,3.0,4.0,71,0.00,,,0.00,Wunderground v.1.15,2013-06-16 23:57:00,
2013-06-16 20:00:00,80.6,70.3,29.95,SSW,202,4.0,8.0,71,0.00,,,0.00,VWS V14.01,2013-06-17 00:00:00,
2013-06-16 20:03:00,80.5,70.2,29.95,SSW,194,3.0,5.0,71,0.00,,,0.00,Wunderground v.1.15,2013-06-17 00:03:00,
2013-06-16 20:09:00,80.3,70.4,29.95,SW,219,4.0,5.0,72,0.00,,,0.00,Wunderground v.1.15,2013-06-17 00:09:00,
2013-06-16 20:14:00,80.0,70.2,29.95,SSW,196,4.0,4.0,72,0.00,,,0.00,Wunderground v.1.15,2013-06-17 00:14:00,
2013-06-16 20:20:00,79.8,70.0,29.95,SSW,194,3.0,3.0,72,0.00,,,0.00,Wunderground v.1.15,2013-06-17 00:20:00,
2013-06-16 20:25:00,79.7,70.3,29.95,SSW,200,3.0,3.0,73,0.00,,,0.00,Wunderground v.1.15,2013-06-17 00:25:00,
2013-06-16 20:30:00,79.6,70.6,29.95,SSW,202,3.0,6.0,74,0.00,,,0.00,VWS V14.01,2013-06-17 00:30:00,
2013-06-16 20:31:00,79.5,70.5,29.95,SW,221,3.0,3.0,74,0.00,,,0.00,Wunderground v.1.15,2013-06-17 00:31:00,
2013-06-16 20:37:00,79.2,70.2,29.95,SSW,213,4.0,5.0,74,0.00,,,0.00,Wunderground v.1.15,2013-06-17 00:37:00,
2013-06-16 20:43:00,78.9,69.9,29.95,SSW,200,4.0,5.0,74,0.00,,,0.00,Wunderground v.1.15,2013-06-17 00:43:00,
2013-06-16 20:49:00,78.8,70.2,29.95,SSW,213,4.0,5.0,75,0.00,,,0.00,Wunderground v.1.15,2013-06-17 00:49:00,
2013-06-16 20:55:00,78.7,70.1,29.96,SSW,211,3.0,4.0,75,0.00,,,0.00,Wunderground v.1.15,2013-06-17 00:55:00,
2013-06-16 21:00:00,78.6,70.4,29.96,SSW,202,3.0,6.0,76,0.00,,,0.00,VWS V14.01,2013-06-17 01:00:00,
2013-06-16 21:01:00,78.5,69.9,29.96,South,184,3.0,4.0,75,0.00,,,0.00,Wunderground v.1.15,2013-06-17 01:01:00,
2013-06-16 21:06:00,78.4,70.2,29.96,SSW,211,3.0,4.0,76,0.00,,,0.00,Wunderground v.1.15,2013-06-17 01:06:00,
2013-06-16 21:12:00,78.2,70.4,29.96,SSW,211,2.0,2.0,77,0.00,,,0.00,Wunderground v.1.15,2013-06-17 01:12:00,
2013-06-16 21:17:00,78.0,70.6,29.97,SSW,211,0.0,2.0,78,0.00,,,0.00,Wunderground v.1.15,2013-06-17 01:17:00,
2013-06-16 21:23:00,77.8,71.1,29.97,SSW,211,0.0,0.0,80,0.00,,,0.00,Wunderground v.1.15,2013-06-17 01:23:00,
2013-06-16 21:29:00,77.6,70.6,29.97,SSW,211,0.0,1.0,79,0.00,,,0.00,Wunderground v.1.15,2013-06-17 01:29:00,
2013-06-16 21:30:00,77.5,70.5,29.97,SSW,202,1.0,4.0,79,0.00,,,0.00,VWS V14.01,2013-06-17 01:30:00,
2013-06-16 21:35:00,77.3,71.4,29.97,WSW,241,1.0,2.0,82,0.00,,,0.00,Wunderground v.1.15,2013-06-17 01:35:00,
2013-06-16 21:40:00,77.1,71.2,29.98,WSW,241,0.0,0.0,82,0.00,,,0.00,Wunderground v.1.15,2013-06-17 01:40:00,
2013-06-16 21:45:00,76.8,70.5,29.98,WSW,257,0.0,1.0,81,0.00,,,0.00,Wunderground v.1.15,2013-06-17 01:45:00,
2013-06-16 21:51:00,76.5,70.9,29.98,NNE,25,0.0,3.0,83,0.00,,,0.00,Wunderground v.1.15,2013-06-17 01:51:00,
2013-06-16 21:57:00,76.2,69.6,29.98,SW,232,1.0,3.0,80,0.00,,,0.00,Wunderground v.1.15,2013-06-17 01:57:00,
2013-06-16 22:00:00,76.2,69.9,29.98,SW,225,0.0,3.0,81,0.00,,,0.00,VWS V14.01,2013-06-17 02:00:00,
2013-06-16 22:03:00,76.2,69.6,29.98,SW,232,0.0,1.0,80,0.00,,,0.00,Wunderground v.1.15,2013-06-17 02:03:00,
2013-06-16 22:08:00,76.1,70.2,29.98,SW,233,0.0,1.0,82,0.00,,,0.00,Wunderground v.1.15,2013-06-17 02:08:00,
2013-06-16 22:14:00,75.9,69.3,29.97,SW,233,0.0,1.0,80,0.00,,,0.00,Wunderground v.1.15,2013-06-17 02:14:00,
2013-06-16 22:20:00,75.8,69.2,29.97,SW,233,0.0,0.0,80,0.00,,,0.00,Wunderground v.1.15,2013-06-17 02:20:00,
2013-06-16 22:25:00,75.7,69.8,29.97,SW,233,0.0,0.0,82,0.00,,,0.00,Wunderground v.1.15,2013-06-17 02:25:00,
2013-06-16 22:30:00,75.5,68.9,29.97,SW,225,0.0,2.0,80,0.00,,,0.00,VWS V14.01,2013-06-17 02:30:00,
2013-06-16 22:31:00,75.4,69.2,29.97,SSE,163,0.0,1.0,81,0.00,,,0.00,Wunderground v.1.15,2013-06-17 02:31:00,
2013-06-16 22:37:00,75.2,69.0,29.97,SSE,163,0.0,1.0,81,0.00,,,0.00,Wunderground v.1.15,2013-06-17 02:37:00,
2013-06-16 22:43:00,74.7,69.5,29.97,SSE,164,0.0,0.0,84,0.00,,,0.00,Wunderground v.1.15,2013-06-17 02:43:00,
2013-06-16 22:49:00,74.4,69.6,29.97,SSE,164,0.0,0.0,85,0.00,,,0.00,Wunderground v.1.15,2013-06-17 02:49:00,
2013-06-16 22:54:00,74.1,69.3,29.98,SSE,164,0.0,0.0,85,0.00,,,0.00,Wunderground v.1.15,2013-06-17 02:54:00,
2013-06-16 22:59:00,73.9,69.4,29.98,SSE,164,0.0,0.0,86,0.00,,,0.00,Wunderground v.1.15,2013-06-17 02:59:00,
2013-06-16 23:00:00,73.9,69.4,29.98,SSE,158,0.0,2.0,86,0.00,,,0.00,VWS V14.01,2013-06-17 03:00:00,
2013-06-16 23:05:00,73.7,68.9,29.98,SSE,164,0.0,0.0,85,0.00,,,0.00,Wunderground v.1.15,2013-06-17 03:05:00,
2013-06-16 23:11:00,73.5,69.4,29.99,NNW,331,0.0,2.0,87,0.00,,,0.00,Wunderground v.1.15,2013-06-17 03:11:00,
2013-06-16 23:17:00,73.2,69.1,29.99,West,273,1.0,7.0,87,0.00,,,0.00,Wunderground v.1.15,2013-06-17 03:17:00,
2013-06-16 23:23:00,73.0,67.5,29.99,WNW,302,1.0,2.0,83,0.00,,,0.00,Wunderground v.1.15,2013-06-17 03:23:00,
2013-06-16 23:29:00,72.8,67.3,29.99,NE,48,1.0,5.0,83,0.00,,,0.00,Wunderground v.1.15,2013-06-17 03:29:00,
2013-06-16 23:30:00,72.8,67.3,29.99,NNW,338,1.0,7.0,83,0.00,,,0.00,VWS V14.01,2013-06-17 03:30:00,
2013-06-16 23:34:00,72.7,67.2,29.99,NW,325,1.0,1.0,83,0.00,,,0.00,Wunderground v.1.15,2013-06-17 03:34:00,
2013-06-16 23:40:00,72.5,67.4,29.99,NW,325,0.0,0.0,84,0.00,,,0.00,Wunderground v.1.15,2013-06-17 03:40:00,
2013-06-16 23:46:00,72.3,67.9,29.99,NW,325,0.0,0.0,86,0.00,,,0.00,Wunderground v.1.15,2013-06-17 03:46:00,
2013-06-16 23:52:00,72.2,68.1,29.99,NW,325,0.0,0.0,87,0.00,,,0.00,Wunderground v.1.15,2013-06-17 03:52:00,
2013-06-16 23:58:00,72.1,68.0,29.99,NW,325,0.0,0.0,87,0.00,,,0.00,Wunderground v.1.15,2013-06-17 03:58:00,